Regional Weather Roundup
Issued by NWS

Home | Current Version | Previous Version | Text Only | Print | Product List | Glossary On
Versions: 1 2 3 4 5 6 7 8 9 10 11 12 13 14 15 16 17 18 19 20 21 22 23 24 25 26 27
000
ASUS46 KPQR 301910
RWROR

OREGON REGIONAL WEATHER ROUNDUP
NATIONAL WEATHER SERVICE PORTLAND OR
1200 PM PDT SAT JUL 30 2016

NOTE: "FAIR" INDICATES FEW OR NO CLOUDS BELOW 12,000 FEET WITH
NO SIGNIFICANT WEATHER AND/OR OBSTRUCTIONS TO VISIBILITY.

ORZ001>013-302000-
NORTHWEST OREGON


CITY           SKY/WX    TMP DP  RH WIND       PRES   REMARKS
ASTORIA        CLOUDY    64  53  67 NW14      30.05R
NEWPORT        SUNNY     64  55  72 N14G20    30.08S
PORTLAND       MOSUNNY   69  50  50 VRB6      30.01F
VANCOUVER WA   SUNNY     70  51  51 VRB6      30.01S
SCAPPOOSE      SUNNY     74  49  41 NW8G16    30.00S
HILLSBORO      SUNNY     72  49  44 W3        30.00S
AURORA         MOSUNNY   72  51  47 N6        30.01F
MCMINNVILLE    SUNNY     71  52  50 VRB3      30.01S
SALEM          SUNNY     75  51  43 MISG      29.99F
CORVALLIS        N/A     73  52  46 N6        30.01F
EUGENE         SUNNY     76  51  41 N9G17     30.00S
$$

ORZ021-028-302000-
SOUTHWEST OREGON


CITY           SKY/WX    TMP DP  RH WIND       PRES   REMARKS
NORTH BEND     SUNNY     66  52  59 N25G36    30.03R
BROOKINGS      SUNNY     68  57  68 VRB6      29.83S
ROSEBURG       SUNNY     81  50  33 N12       29.94F
SEXTON SUMMIT  SUNNY     74  53  48 VRB5      30.04R
MEDFORD        SUNNY     87  53  31 VRB3      29.89F
$$

ORZ014>016-041-302000-
COLUMBIA GORGE


CITY           SKY/WX    TMP DP  RH WIND       PRES   REMARKS
TROUTDALE      SUNNY     70  51  51 VRB3      30.01S
THE DALLES     SUNNY     83  37  19 NW22G29   29.83R
$$

ORZ029>031-041-044-049-050-061>064-502-503-505>511-302000-
EASTERN OREGON


CITY           SKY/WX    TMP DP  RH WIND       PRES   REMARKS
REDMOND        SUNNY     86  38  18 VRB5      29.94F
BEND           SUNNY     84  37  18 W9G15     29.95F
PRINEVILLE     SUNNY     82  41  23 VRB5G12   29.96S
KLAMATH FALLS  SUNNY     85  43  22 N5        30.00S
LAKEVIEW       SUNNY    N/A N/A N/A S5        30.04S
HERMISTON      SUNNY     90  39  16 W16G25    29.76F
PENDLETON      SUNNY     89  31  12 W22G28    29.81F
JOHN DAY       SUNNY     83  34  17 N5        29.96F
MEACHAM        SUNNY     80  34  19 VRB7      29.95S
LA GRANDE      SUNNY     88  41  19 NW8       29.87F
BAKER CITY     SUNNY     87  44  22 VRB7      29.91F
BURNS          SUNNY     90  22   8 SW14      29.97F
ROME             N/A     96  37  12 NE8       29.91F HX  91
ONTARIO        SUNNY     95  44  17 S8        29.80F HX  91
$$




USA.gov is the U.S. government's official web portal to all federal, state and local government web resources and services.